Regional Weather Roundup
Issued by NWS

Home | Current Version | Previous Version | Text Only | Print | Product List | Glossary Off
Versions: 1 2 3 4 5 6 7 8 9 10 11 12 13 14 15 16 17 18 19 20 21 22 23 24 25 26 27 28 29 30 31 32 33 34 35 36 37 38 39 40 41 42 43 44 45 46 47 48 49 50

000
ASUS45 KCYS 280310
RWRWY

WYOMING REGIONAL WEATHER ROUNDUP
NATIONAL WEATHER SERVICE CHEYENNE WY
900 PM MDT WED MAY 27 2015

NOTE:  "FAIR" INDICATES FEW OR NO CLOUDS BELOW 12,000 FEET
WITH NO SIGNIFICANT WEATHER AND/OR OBSTRUCTIONS TO VISIBILITY.

WYZ001-280400-
YELLOWSTONE NATIONAL PARK

CITY           SKY/WX    TMP DP  RH WIND       PRES   REMARKS
LK YELLOWSTONE   N/A     40  36  86 CALM      30.16R
W YELLOWSTONE  NOT AVBL

$$
WYZ002>013-054>058-071-098>099-280400-
NORTHERN WYOMING

CITY           SKY/WX    TMP DP  RH WIND       PRES   REMARKS
JACKSON        FAIR      46  41  81 SW7       30.11R
CODY           MOCLDY    54  43  66 N7        30.02R
GREYBULL       FAIR      65  42  43 S9        29.94R
WORLAND        CLOUDY    56  47  71 NE14      29.96F
SHERIDAN       FAIR      57  52  83 SW3       29.98R
BUFFALO        LGT RAIN  57  51  80 NW13      30.01R
GILLETTE       LGT RAIN  59  55  87 SE3       29.96S
HULETT         FAIR      55  54  94 SE3       29.98R
NEWCASTLE      FAIR      59  46  63 MISG      29.97S

$$
WYZ014>020-022>026-101>103-280400-
CENTRAL WYOMING

CITY           SKY/WX    TMP DP  RH WIND       PRES   REMARKS
BIG PINEY      FAIR      46  42  86 NE6       30.13S
PINEDALE       MOCLDY    45  43  93 CALM      30.14F
DUBOIS         FAIR      45  37  76 NW12      30.09S
LANDER         MOCLDY    55  44  66 W7        29.99S
RIVERTON       FAIR      55  45  68 CALM      30.00F
CASPER         MOCLDY    58  43  57 W3        30.01R
DOUGLAS        CLOUDY    62  49  62 SW7       29.99S

$$
WYZ021-027>030-104>119-280400-
SOUTHERN WYOMING

CITY           SKY/WX    TMP DP  RH WIND       PRES   REMARKS
EVANSTON       FAIR      51  39  63 W7        30.14S
KEMMERER       FAIR      46  37  71 N7        30.15S
FORT BRIDGER   CLEAR     52  41  66 NW5       30.17S
ROCK SPRINGS   FAIR      50  45  83 SE9       30.13R
DIXON          MOCLDY    53  47  81 CALM      30.18R THUNDER
RAWLINS        FAIR      49  44  83 SW8       30.13S
SARATOGA       MOCLDY    48  43  81 S13       30.16S
LARAMIE        FAIR      51  39  63 S12       30.13R
CHEYENNE       MOCLDY    57  48  72 E6        30.10R
TORRINGTON     FAIR      60  54  80 SE10      29.99R
PINE BLUFFS    LGT RAIN  59  54  82 E8        30.09R

$$


USA.gov is the U.S. government's official web portal to all federal, state and local government web resources and services.